Location: Pandora
(40.9481°N, 83.9611°W)
Time: 22:53:04
(UTC-04:00)

Nauka - Pass Details

Date: 23 September 2021
Orbit: 417 x 423 km, 51.6° (Epoch: 19 October)

Event Time Altitude Azimuth Distance (km) Brightness Sun altitude
Rises 21:53:25 0° 304° (NW) 2,364 ? -27.0°
Reaches altitude 10° 21:56:21 10° 332° (NNW) 1,502 ? -27.5°
Enters shadow 21:57:11 12° 346° (NNW) 1,362 ? -27.6°
